PGT3604 LTDB-LTAI

Flight info

Callsign PGT3604
Flight time 0h 43m
Altitude 28000
Route MANAZ1J/21L MANAZ DCT KETEK DCT KONAK
Aircraft A320/M-SDE3FGHIRWY/LB1

Departure

Time 2026-05-08 18:25
Airport Çukurova International Airport (LTDB)

Arrival

Time 2026-05-08 19:09
Airport Antalya International Airport (LTAI)
Time Latitude Longitude Altitude Speed Heading
2026-05-08 17:52 36.90230 35.07067 49 ft 0 kts 302°
2026-05-08 18:14 36.90223 35.07080 52 ft 4 kts 305°
2026-05-08 18:14 36.90206 35.07106 49 ft 4 kts 321°
2026-05-08 18:14 36.90184 35.07121 48 ft 4 kts
2026-05-08 18:14 36.90173 35.07118 47 ft 0 kts 32°
2026-05-08 18:16 36.90175 35.07120 47 ft 3 kts 32°
2026-05-08 18:17 36.90211 35.07148 50 ft 8 kts 32°
2026-05-08 18:17 36.90265 35.07190 51 ft 11 kts 32°
2026-05-08 18:17 36.90274 35.07257 49 ft 9 kts 122°
2026-05-08 18:17 36.90231 35.07343 49 ft 15 kts 122°
2026-05-08 18:18 36.90178 35.07446 52 ft 13 kts 122°
2026-05-08 18:18 36.90132 35.07539 51 ft 12 kts 118°
2026-05-08 18:18 36.90163 35.07608 53 ft 11 kts 32°
2026-05-08 18:18 36.90241 35.07668 48 ft 14 kts 31°
2026-05-08 18:19 36.90325 35.07732 52 ft 18 kts 31°
2026-05-08 18:19 36.90439 35.07821 52 ft 20 kts 32°
2026-05-08 18:19 36.90538 35.07897 52 ft 14 kts 32°
2026-05-08 18:19 36.90590 35.07983 52 ft 11 kts 96°
2026-05-08 18:20 36.90572 35.08030 52 ft 5 kts 120°
2026-05-08 18:20 36.90558 35.08060 51 ft 3 kts 121°
2026-05-08 18:20 36.90533 35.08112 50 ft 9 kts 120°
2026-05-08 18:20 36.90476 35.08131 52 ft 10 kts 204°
2026-05-08 18:21 36.90468 35.08125 52 ft 0 kts 211°
2026-05-08 18:24 36.90405 35.08076 49 ft 40 kts 212°
2026-05-08 18:25 36.89954 35.07732 51 ft 108 kts 212°
2026-05-08 18:25 36.89150 35.07118 56 ft 160 kts 212°
2026-05-08 18:25 36.88188 35.06369 648 ft 162 kts 213°
2026-05-08 18:25 36.87226 35.05618 1350 ft 163 kts 213°
2026-05-08 18:26 36.86234 35.04856 1920 ft 177 kts 212°
2026-05-08 18:26 36.85120 35.04010 2264 ft 199 kts 212°
2026-05-08 18:26 36.83859 35.03059 2584 ft 224 kts 211°
2026-05-08 18:26 36.82448 35.01992 3005 ft 249 kts 213°
2026-05-08 18:27 36.81233 35.00387 3611 ft 265 kts 245°
2026-05-08 18:27 36.80929 34.98908 4128 ft 270 kts 267°
2026-05-08 18:27 36.81216 34.95782 5314 ft 275 kts 284°
2026-05-08 18:27 36.81660 34.93443 6238 ft 279 kts 285°
2026-05-08 18:28 36.82108 34.91072 7114 ft 283 kts 285°
2026-05-08 18:28 36.82560 34.88672 7982 ft 286 kts 285°
2026-05-08 18:28 36.83020 34.86233 8859 ft 289 kts 285°
2026-05-08 18:28 36.83482 34.83780 9738 ft 293 kts 285°
2026-05-08 18:29 36.83952 34.81294 10546 ft 296 kts 285°
2026-05-08 18:29 36.84429 34.78776 11232 ft 306 kts 285°
2026-05-08 18:29 36.84939 34.76092 11479 ft 329 kts 284°
2026-05-08 18:29 36.85471 34.73292 12001 ft 341 kts 284°
2026-05-08 18:30 36.86016 34.70398 12739 ft 344 kts 284°
2026-05-08 18:30 36.86572 34.67437 13538 ft 347 kts 284°
2026-05-08 18:30 36.87123 34.64493 14272 ft 349 kts 284°
2026-05-08 18:30 36.87678 34.61532 14955 ft 352 kts 284°
2026-05-08 18:31 36.88227 34.58588 15626 ft 354 kts 284°
2026-05-08 18:31 36.88788 34.55578 16289 ft 358 kts 284°
2026-05-08 18:31 36.89355 34.52538 16966 ft 361 kts 283°
2026-05-08 18:31 36.89926 34.49473 17612 ft 364 kts 283°
2026-05-08 18:32 36.90500 34.46382 18230 ft 367 kts 283°
2026-05-08 18:32 36.91080 34.43261 18790 ft 370 kts 283°
2026-05-08 18:32 36.91455 34.40070 19327 ft 374 kts 273°
2026-05-08 18:32 36.91452 34.36817 19879 ft 376 kts 270°
2026-05-08 18:33 36.91425 34.33540 20431 ft 378 kts 270°
2026-05-08 18:33 36.91401 34.30242 21002 ft 380 kts 271°
2026-05-08 18:33 36.91377 34.26926 21529 ft 383 kts 271°
2026-05-08 18:33 36.91359 34.24399 21942 ft 384 kts 271°
2026-05-08 18:34 36.91335 34.21051 22495 ft 387 kts 271°
2026-05-08 18:34 36.91309 34.17681 22998 ft 389 kts 271°
2026-05-08 18:34 36.91285 34.14294 23505 ft 392 kts 271°
2026-05-08 18:34 36.91260 34.10875 23973 ft 394 kts 271°
2026-05-08 18:35 36.91234 34.07446 24404 ft 395 kts 271°
2026-05-08 18:35 36.91206 34.04004 24825 ft 397 kts 272°
2026-05-08 18:35 36.91175 34.00557 25286 ft 397 kts 272°
2026-05-08 18:35 36.91140 33.97098 25717 ft 398 kts 272°
2026-05-08 18:36 36.91105 33.93637 26128 ft 400 kts 272°
2026-05-08 18:36 36.91069 33.90159 26547 ft 401 kts 272°
2026-05-08 18:36 36.91035 33.86672 26961 ft 402 kts 272°
2026-05-08 18:36 36.90997 33.83228 27371 ft 403 kts 272°
2026-05-08 18:37 36.90957 33.79723 27767 ft 404 kts 272°
2026-05-08 18:37 36.90917 33.76165 28121 ft 405 kts 272°
2026-05-08 18:37 36.90834 33.69305 28207 ft 388 kts 272°
2026-05-08 18:38 36.90756 33.62600 28207 ft 385 kts 272°
2026-05-08 18:38 36.90671 33.55865 28199 ft 385 kts 272°
2026-05-08 18:39 36.90583 33.49228 28197 ft 385 kts 272°
2026-05-08 18:39 36.90488 33.42551 28066 ft 383 kts 272°
2026-05-08 18:40 36.90439 33.39245 27804 ft 378 kts 272°
2026-05-08 18:40 36.90395 33.35977 27352 ft 374 kts 272°
2026-05-08 18:40 36.90350 33.32737 27371 ft 374 kts 272°
2026-05-08 18:40 36.90304 33.29473 27626 ft 377 kts 272°
2026-05-08 18:41 36.90258 33.26196 27877 ft 378 kts 272°
2026-05-08 18:41 36.90207 33.22904 28107 ft 380 kts 272°
2026-05-08 18:41 36.90097 33.16298 28198 ft 382 kts 272°
2026-05-08 18:42 36.89985 33.09644 28197 ft 383 kts 271°
2026-05-08 18:42 36.89869 33.02981 28197 ft 383 kts 271°
2026-05-08 18:43 36.89751 32.96325 28199 ft 383 kts 271°
2026-05-08 18:43 36.89627 32.89670 28202 ft 383 kts 271°
2026-05-08 18:44 36.89503 32.83014 28204 ft 383 kts 271°
2026-05-08 18:44 36.89374 32.76376 28188 ft 382 kts 271°
2026-05-08 18:45 36.89243 32.69730 28193 ft 382 kts 271°
2026-05-08 18:45 36.89109 32.63097 28199 ft 382 kts 271°
2026-05-08 18:46 36.88963 32.56488 27836 ft 377 kts 271°
2026-05-08 18:46 36.88891 32.53222 27582 ft 376 kts 271°
2026-05-08 18:46 36.88821 32.49964 27332 ft 375 kts 271°
2026-05-08 18:47 36.88759 32.46713 27079 ft 374 kts 272°
2026-05-08 18:47 36.88754 32.43475 26829 ft 372 kts 273°
2026-05-08 18:47 36.88790 32.40251 26583 ft 371 kts 271°
2026-05-08 18:47 36.88849 32.37028 26338 ft 370 kts 274°
2026-05-08 18:48 36.88904 32.33855 26096 ft 370 kts 273°
2026-05-08 18:48 36.88952 32.30651 25855 ft 369 kts 273°
2026-05-08 18:48 36.88991 32.27448 25617 ft 368 kts 272°
2026-05-08 18:48 36.89023 32.24257 25378 ft 367 kts 272°
2026-05-08 18:49 36.89050 32.21072 25207 ft 367 kts 272°
2026-05-08 18:49 36.89072 32.17893 25185 ft 367 kts 272°
2026-05-08 18:49 36.89095 32.14700 24941 ft 367 kts 272°
2026-05-08 18:49 36.89118 32.11520 24708 ft 366 kts 272°
2026-05-08 18:50 36.89144 32.08343 24476 ft 365 kts 272°
2026-05-08 18:50 36.89170 32.05170 24235 ft 365 kts 272°
2026-05-08 18:50 36.89193 32.02000 24001 ft 365 kts 272°
2026-05-08 18:50 36.89216 31.98840 23773 ft 363 kts 272°
2026-05-08 18:51 36.89238 31.95709 23362 ft 358 kts 272°
2026-05-08 18:51 36.89259 31.92618 22887 ft 354 kts 272°
2026-05-08 18:51 36.89278 31.89557 22419 ft 351 kts 272°
2026-05-08 18:51 36.89300 31.86525 21949 ft 348 kts 272°
2026-05-08 18:52 36.89318 31.83511 21473 ft 346 kts 271°
2026-05-08 18:52 36.89327 31.80511 20994 ft 346 kts 269°
2026-05-08 18:52 36.88882 31.77566 20491 ft 348 kts 249°
2026-05-08 18:52 36.87577 31.75022 20030 ft 352 kts 229°
2026-05-08 18:53 36.85591 31.73242 19591 ft 357 kts 207°
2026-05-08 18:53 36.83211 31.72326 19164 ft 359 kts 197°
2026-05-08 18:53 36.80780 31.71626 18703 ft 358 kts 196°
2026-05-08 18:53 36.78340 31.70939 18136 ft 360 kts 195°
2026-05-08 18:54 36.75888 31.70248 17537 ft 362 kts 195°
2026-05-08 18:54 36.73427 31.69554 16938 ft 364 kts 196°
2026-05-08 18:54 36.70986 31.68865 16358 ft 365 kts 195°
2026-05-08 18:54 36.68506 31.68164 15791 ft 366 kts 195°
2026-05-08 18:55 36.63528 31.66755 14622 ft 368 kts 195°
2026-05-08 18:55 36.61069 31.65894 14027 ft 366 kts 207°
2026-05-08 18:55 36.58981 31.64154 13463 ft 359 kts 227°
2026-05-08 18:56 36.57497 31.61708 12988 ft 353 kts 244°
2026-05-08 18:56 36.56685 31.58857 12531 ft 350 kts 261°
2026-05-08 18:56 36.56606 31.55854 12076 ft 347 kts 279°
2026-05-08 18:56 36.57054 31.52904 11632 ft 348 kts 279°
2026-05-08 18:57 36.57269 31.49904 11176 ft 348 kts 275°
2026-05-08 18:57 36.57350 31.47913 10900 ft 348 kts 273°
2026-05-08 18:57 36.57328 31.43886 10327 ft 348 kts 269°
2026-05-08 18:57 36.57208 31.40880 9889 ft 348 kts 269°
2026-05-08 18:58 36.57077 31.37880 9420 ft 347 kts 269°
2026-05-08 18:58 36.56951 31.34898 8961 ft 345 kts 269°
2026-05-08 18:58 36.56830 31.31927 8505 ft 343 kts 269°
2026-05-08 18:58 36.56715 31.28972 8056 ft 341 kts 269°
2026-05-08 18:59 36.56605 31.26035 7611 ft 339 kts 269°
2026-05-08 18:59 36.56646 31.23114 7194 ft 336 kts 275°
2026-05-08 18:59 36.56936 31.20248 6835 ft 332 kts 284°
2026-05-08 18:59 36.57476 31.17461 6478 ft 331 kts 284°
2026-05-08 19:00 36.57785 31.15608 6228 ft 330 kts 282°
2026-05-08 19:00 36.58213 31.12810 5852 ft 328 kts 280°
2026-05-08 19:00 36.58639 31.10030 5477 ft 326 kts 282°
2026-05-08 19:00 36.59072 31.07294 5117 ft 318 kts 282°
2026-05-08 19:01 36.59666 31.03788 4625 ft 308 kts 282°
2026-05-08 19:01 36.59961 31.02043 4371 ft 303 kts 281°
2026-05-08 19:01 36.60462 30.98677 3880 ft 294 kts 280°
2026-05-08 19:01 36.60797 30.96189 3510 ft 289 kts 278°
2026-05-08 19:02 36.60990 30.94531 3265 ft 285 kts 278°
2026-05-08 19:02 36.61253 30.92115 3000 ft 276 kts 278°
2026-05-08 19:02 36.61496 30.89807 2984 ft 265 kts 278°
2026-05-08 19:02 36.61734 30.87534 2990 ft 264 kts 278°
2026-05-08 19:03 36.61968 30.85269 2988 ft 264 kts 278°
2026-05-08 19:03 36.62263 30.83020 2985 ft 263 kts 288°
2026-05-08 19:03 36.63194 30.81094 2990 ft 262 kts 316°
2026-05-08 19:03 36.64715 30.79859 2995 ft 262 kts 334°
2026-05-08 19:04 36.66365 30.78892 2999 ft 262 kts 335°
2026-05-08 19:04 36.68007 30.77963 2994 ft 252 kts 336°
2026-05-08 19:04 36.69529 30.77105 2995 ft 236 kts 336°
2026-05-08 19:04 36.71070 30.76506 2989 ft 224 kts
2026-05-08 19:05 36.72545 30.76808 2999 ft 208 kts 10°
2026-05-08 19:05 36.73920 30.77057 2927 ft 199 kts
2026-05-08 19:05 36.75306 30.77254 2733 ft 198 kts
2026-05-08 19:05 36.76655 30.77438 2493 ft 198 kts
2026-05-08 19:06 36.78004 30.77622 2260 ft 191 kts
2026-05-08 19:06 36.79302 30.77799 2002 ft 182 kts
2026-05-08 19:06 36.80520 30.77966 1762 ft 170 kts
2026-05-08 19:06 36.81622 30.78117 1557 ft 149 kts
2026-05-08 19:07 36.82617 30.78252 1363 ft 140 kts
2026-05-08 19:07 36.83573 30.78383 1184 ft 138 kts
2026-05-08 19:07 36.84517 30.78512 1008 ft 137 kts
2026-05-08 19:07 36.85471 30.78644 808 ft 138 kts
2026-05-08 19:08 36.86427 30.78776 633 ft 140 kts
2026-05-08 19:08 36.87394 30.78904 452 ft 140 kts
2026-05-08 19:08 36.88362 30.79040 262 ft 140 kts
2026-05-08 19:08 36.89276 30.79169 201 ft 115 kts
2026-05-08 19:09 36.89899 30.79254 194 ft 71 kts
2026-05-08 19:09 36.90258 30.79310 189 ft 33 kts 16°
2026-05-08 19:09 36.90372 30.79391 199 ft 12 kts 36°
2026-05-08 19:09 36.90432 30.79447 199 ft 10 kts 36°
2026-05-08 19:10 36.90481 30.79492 202 ft 8 kts 38°
2026-05-08 19:10 36.90521 30.79529 193 ft 6 kts 36°
2026-05-08 19:10 36.90553 30.79558 203 ft 5 kts 36°
2026-05-08 19:10 36.90595 30.79570 196 ft 8 kts
2026-05-08 19:11 36.90698 30.79581 202 ft 18 kts
2026-05-08 19:11 36.90831 30.79600 206 ft 21 kts
2026-05-08 19:11 36.90980 30.79623 204 ft 23 kts
2026-05-08 19:11 36.91139 30.79643 191 ft 21 kts
2026-05-08 19:12 36.91210 30.79705 191 ft 13 kts 84°
2026-05-08 19:12 36.91209 30.79772 197 ft 7 kts 91°
2026-05-08 19:12 36.91208 30.79838 201 ft 9 kts 93°
2026-05-08 19:12 36.91232 30.79890 196 ft 10 kts 359°
2026-05-08 19:13 36.91340 30.79904 191 ft 11 kts 25°
2026-05-08 19:13 36.91348 30.79973 205 ft 7 kts 95°
2026-05-08 19:13 36.91344 30.80025 191 ft 6 kts 96°
2026-05-08 19:13 36.91340 30.80064 191 ft 3 kts 96°
2026-05-08 19:14 36.91339 30.80072 191 ft 0 kts 96°